Location: Tucson
(32.2217°N, 110.9265°W)
Time: 16:54:55
(UTC-07:00)

CAS-4A - Visible Passes

Search period start: 27 November 2021 00:00
Search period end: 07 December 2021 00:00
Orbit: 529 x 539 km, 43.0° (Epoch: 27 November)

Date Brightness Start Highest point End Pass type
(mag) Time Alt. Az. Time Alt. Az. Time Alt. Az.
27 Nov ? 04:57:56 47° ENE 04:57:56 47° ENE 05:01:06 10° ESE visible
27 Nov ? 06:33:49 10° W 06:36:56 21° SW 06:40:03 10° S visible
28 Nov ? 04:47:40 34° ESE 04:47:40 34° ESE 04:50:02 10° ESE visible
28 Nov ? 06:23:11 10° W 06:25:44 16° SW 06:28:17 10° S visible
29 Nov ? 04:37:27 22° SE 04:37:27 22° SE 04:38:56 10° SE visible
29 Nov ? 06:12:54 10° WSW 06:14:31 12° SW 06:16:08 10° SSW visible
30 Nov ? 04:27:17 13° SE 04:27:17 13° SE 04:27:45 10° SE visible
02 Dec ? 19:24:26 10° SSW 19:25:35 16° S 19:25:35 16° S visible
03 Dec ? 19:12:57 10° SSW 19:15:24 27° S 19:15:24 27° S visible
04 Dec ? 19:01:34 10° SW 19:05:09 44° SSE 19:05:09 44° SSE visible
05 Dec ? 18:50:17 10° SW 18:54:18 60° SE 18:54:51 53° ESE visible
06 Dec ? 18:39:04 10° SW 18:43:09 79° SSE 18:44:30 41° ENE visible
